This is the latest recevied weather packets stored in our database for station/object N9CQS-13. If no packets are shown the sender has not sent any weather packets the latest 10 day(s).
| Time | Temp. | Humidity | Pressure | Rain* | Wind** | Luminosity | Snow |
|---|---|---|---|---|---|---|---|
| 1777646493 | 8.89° C | 72% | 1017.7 hPa | 0 mm | - | - | - |
| 1777645894 | 8.33° C | 74% | 1017.6 hPa | 0 mm | - | - | - |
| 1777645292 | 8.33° C | 77% | 1017.6 hPa | 0 mm | - | - | - |
| 1777644692 | 7.78° C | 78% | 1017.6 hPa | 0 mm | - | - | - |
| 1777644092 | 7.78° C | 78% | 1017.6 hPa | 0 mm | - | - | - |
| 1777643492 | 7.78° C | 77% | 1017.5 hPa | 0 mm | - | - | - |
| 1777642892 | 7.78° C | 79% | 1017.4 hPa | 0 mm | - | - | - |
| 1777642292 | 7.22° C | 82% | 1017.3 hPa | 0 mm | - | - | - |
| 1777641692 | 7.22° C | 80% | 1017.3 hPa | 0 mm | - | - | - |
| 1777641093 | 7.22° C | 83% | 1017.2 hPa | 0 mm | - | - | - |
| 1777640493 | 7.22° C | 83% | 1017.1 hPa | 0 mm | - | - | - |
| 1777639892 | 7.78° C | 82% | 1017 hPa | 0 mm | - | - | - |
| 1777639292 | 7.78° C | 83% | 1016.7 hPa | 0 mm | - | - | - |
| 1777638691 | 7.22° C | 85% | 1016.5 hPa | 0 mm | - | - | - |
| 1777638092 | 7.22° C | 85% | 1016.3 hPa | 0 mm | - | - | - |
| 1777637492 | 7.22° C | 86% | 1016.2 hPa | 0 mm | - | - | - |
| 1777636893 | 7.22° C | 86% | 1016.1 hPa | 0 mm | - | - | - |
| 1777636292 | 7.22° C | 84% | 1015.9 hPa | 0 mm | - | - | - |
| 1777635692 | 7.22° C | 83% | 1015.8 hPa | 0 mm | - | - | - |
| 1777635092 | 7.22° C | 84% | 1015.6 hPa | 0 mm | - | - | - |
| 1777634492 | 7.22° C | 90% | 1015.4 hPa | 0 mm | - | - | - |
| 1777633892 | 7.22° C | 91% | 1015.3 hPa | 0 mm | - | - | - |
| 1777633292 | 7.22° C | 92% | 1015.3 hPa | 0 mm | - | - | - |
| 1777632692 | 7.22° C | 92% | 1015.1 hPa | 0 mm | - | - | - |
| 1777632091 | 7.22° C | 92% | 1014.9 hPa | 0 mm | - | - | - |
* Rain latest hour (hover to see other rain measurements)
** Current wind speed in m/s (hover to see current wind gust speed)